Location: Unspecified
(43.8044°N, 11.0278°E)
Time: 12:28:32
(UTC+02:00)

Okean 3 - Visible Passes

Search period start: 23 April 2014 00:00
Search period end: 03 May 2014 00:00
Orbit: 583 x 612 km, 82.5° (Epoch: 22 April)

Date Brightness Start Highest point End Pass type
(mag) Time Alt. Az. Time Alt. Az. Time Alt. Az.
23 Apr 3.5 21:33:54 10° S 21:38:11 86° W 21:42:27 10° N visible
24 Apr 4.2 21:44:41 10° SSW 21:48:51 53° W 21:53:01 10° N visible
25 Apr 5.2 21:55:42 10° SW 21:59:35 33° WNW 22:03:27 10° N visible
26 Apr 6.0 22:07:01 10° SW 22:10:21 22° WNW 22:13:41 10° NNW visible
27 Apr 3.7 20:39:20 10° S 20:43:26 50° E 20:47:32 10° NNE visible
27 Apr 6.5 22:18:46 10° WSW 22:21:10 15° WNW 22:23:34 10° NW visible
28 Apr 3.4 20:49:47 10° S 20:54:01 82° E 20:58:16 10° N visible
29 Apr 4.1 21:00:28 10° SSW 21:04:39 62° W 21:08:51 10° N visible
30 Apr 5.1 21:11:23 10° SW 21:15:20 38° WNW 21:19:19 10° N visible
01 May 6.0 21:22:34 10° SW 21:26:04 25° WNW 21:29:35 10° NNW visible
02 May 6.5 21:34:07 10° WSW 21:36:51 17° WNW 21:39:35 10° NNW visible
